Time,TemperatureF,DewpointF,PressureIn,WindDirection,WindDirectionDegrees,WindSpeedMPH,WindSpeedGustMPH,Humidity,HourlyPrecipIn,Conditions,Clouds,dailyrainin,SoftwareType,DateUTC
2014-04-17 00:13:00,42.3,27.0,30.30,South,186,0.0,0.0,54,0.00,,,0.00,weatherlink.com 1.10,2014-04-17 04:13:00,
2014-04-17 00:28:00,42.1,26.0,30.30,South,186,0.0,0.0,54,0.00,,,0.00,weatherlink.com 1.10,2014-04-17 04:28:00,
2014-04-17 00:43:00,42.1,27.0,30.30,South,186,0.0,0.0,55,0.00,,,0.00,weatherlink.com 1.10,2014-04-17 04:43:00,
2014-04-17 00:58:00,41.8,28.0,30.30,South,186,0.0,1.0,58,0.00,,,0.00,weatherlink.com 1.10,2014-04-17 04:58:00,
2014-04-17 01:13:00,41.2,28.0,30.30,South,186,0.0,0.0,59,0.00,,,0.00,weatherlink.com 1.10,2014-04-17 05:13:00,
2014-04-17 01:28:00,40.9,28.0,30.29,South,186,0.0,0.0,60,0.00,,,0.00,weatherlink.com 1.10,2014-04-17 05:28:00,
2014-04-17 01:43:00,40.5,27.0,30.29,South,186,0.0,0.0,60,0.00,,,0.00,weatherlink.com 1.10,2014-04-17 05:43:00,
2014-04-17 01:58:00,40.4,26.0,30.29,South,186,0.0,0.0,58,0.00,,,0.00,weatherlink.com 1.10,2014-04-17 05:58:00,
2014-04-17 02:13:00,40.5,27.0,30.29,South,186,0.0,0.0,58,0.00,,,0.00,weatherlink.com 1.10,2014-04-17 06:13:00,
2014-04-17 02:28:00,40.5,26.0,30.29,South,186,0.0,0.0,57,0.00,,,0.00,weatherlink.com 1.10,2014-04-17 06:28:00,
2014-04-17 02:43:00,40.6,26.0,30.28,South,186,0.0,0.0,57,0.00,,,0.00,weatherlink.com 1.10,2014-04-17 06:43:00,
2014-04-17 02:58:00,40.4,26.0,30.28,South,186,0.0,0.0,57,0.00,,,0.00,weatherlink.com 1.10,2014-04-17 06:58:00,
2014-04-17 03:13:00,40.2,26.0,30.28,South,186,0.0,0.0,58,0.00,,,0.00,weatherlink.com 1.10,2014-04-17 07:13:00,
2014-04-17 03:28:00,40.0,26.0,30.28,South,186,0.0,0.0,58,0.00,,,0.00,weatherlink.com 1.10,2014-04-17 07:28:00,
2014-04-17 03:43:00,39.8,26.0,30.28,South,186,0.0,0.0,59,0.00,,,0.00,weatherlink.com 1.10,2014-04-17 07:43:00,
2014-04-17 03:58:00,39.5,26.0,30.29,South,186,0.0,0.0,59,0.00,,,0.00,weatherlink.com 1.10,2014-04-17 07:58:00,
2014-04-17 04:13:00,39.4,26.0,30.29,South,186,0.0,0.0,60,0.00,,,0.00,weatherlink.com 1.10,2014-04-17 08:13:00,
2014-04-17 04:28:00,39.3,28.0,30.30,South,186,0.0,0.0,63,0.00,,,0.00,weatherlink.com 1.10,2014-04-17 08:28:00,
2014-04-17 04:43:00,39.0,28.0,30.30,South,186,0.0,0.0,64,0.00,,,0.00,weatherlink.com 1.10,2014-04-17 08:43:00,
2014-04-17 04:58:00,38.8,27.0,30.30,South,186,0.0,0.0,64,0.00,,,0.00,weatherlink.com 1.10,2014-04-17 08:58:00,
2014-04-17 05:13:00,38.4,28.0,30.30,South,186,0.0,0.0,66,0.00,,,0.00,weatherlink.com 1.10,2014-04-17 09:13:00,
2014-04-17 05:28:00,38.3,27.0,30.31,South,186,0.0,0.0,64,0.00,,,0.00,weatherlink.com 1.10,2014-04-17 09:28:00,
2014-04-17 05:43:00,38.3,27.0,30.31,South,186,0.0,0.0,64,0.00,,,0.00,weatherlink.com 1.10,2014-04-17 09:43:00,